Dewpoint
55 55 54 52 51 50 48 47 46 44 45 47 46 47 48 46 45 46 46 48 50 52 51 49 49 49 49 48 44 40 40 40 39 39 39 40 40 39
54 54 53 53 52 51 49 48 47 46 45 46 46 46 47 47 45 43 44 45 48 50 51 50 48 48 49 48 45 40 39 38 38 39 39 38 38 37
54 54 53 54 53 52 52 50 48 47 46 46 47 46 45 46 44 42 42 43 43 48 49 49 48 46 48 47 45 41 39 38 38 38 38 38 37 35
53 54 53 53 53 53 53 52 52 51 48 46 46 44 44 43 43 39 39 39 40 41 47 48 47 45 48 47 44 42 40 38 38 38 38 38 36 32
53 54 53 53 53 53 53 52 51 50 49 49 47 42 42 39 38 36 37 36 37 38 44 46 46 44 47 46 44 42 40 39 39 38 38 37 33 31
53 53 53 53 53 53 53 52 52 50 49 47 45 40 41 38 38 37 34 33 34 35 38 42 44 44 45 45 44 41 40 39 37 37 38 35 32 31
52 53 53 53 52 52 52 52 52 51 50 49 47 40 39 36 38 37 37 35 33 34 34 38 40 41 43 43 41 40 40 39 38 38 37 34 31 31
50 51 51 51 51 51 51 51 52 51 50 49 48 44 41 40 38 37 36 33 33 31 32 33 37 38 39 40 40 39 39 38 39 37 35 32 31 31
49 50 50 50 50 50 50 50 50 50 51 50 49 48 44 42 39 38 37 35 37 32 31 32 35 35 37 37 39 39 39 39 38 36 34 32 31 31
45 48 49 50 50 50 50 50 50 50 50 50 50 50 49 46 41 40 39 38 35 32 32 32 34 33 35 35 38 39 39 38 37 35 34 31 31 30
43 45 47 48 49 49 49 48 48 49 50 50 50 50 50 49 44 42 39 37 35 32 33 32 31 32 33 33 34 38 38 37 35 34 32 31 30 32
41 43 45 46 47 48 47 47 46 46 47 47 48 48 48 48 46 43 40 38 36 32 33 32 30 30 30 30 31 31 34 34 33 33 31 30 31 29
40 41 43 45 46 46 47 46 46 47 46 46 46 44 44 44 44 42 40 39 37 35 34 33 31 30 30 27 27 29 30 31 31 30 30 31 30 32
40 41 42 43 44 44 44 45 46 46 43 42 41 40 39 39 40 40 38 36 37 36 35 34 31 30 29 25 23 25 26 27 28 28 28 31 33 29
38 38 39 40 41 41 42 44 44 41 39 38 37 36 35 34 33 32 32 32 31 33 35 31 30 29 29 26 23 25 24 26 28 28 29 28 25 24
37 37 38 40 40 40 41 43 40 39 38 37 35 32 31 32 31 31 30 30 27 27 30 31 30 30 27 27 26 25 27 27 26 27 26 24 25 25
38 37 36 36 36 37 37 36 36 36 35 33 32 31 30 30 30 30 29 28 26 24 25 26 27 28 28 27 26 26 25 25 24 22 22 20 21 23
36 34 33 33 34 34 34 33 33 33 32 32 31 30 29 28 28 28 28 27 25 25 24 24 24 24 24 25 27 24 23 22 21 21 21 19 18 19
34 33 33 33 32 32 32 32 31 31 31 31 30 29 28 27 27 27 28 27 26 25 24 24 23 23 21 21 18 25 18 18 19 19 20 19 17 18
34 33 32 32 32 32 31 31 31 30 30 30 29 28 28 28 27 27 28 26 25 23 22 22 22 21 19 14 13 18 22 21 20 18 16 18 19 20
33 33 32 32 31 31 31 31 31 30 30 29 29 29 29 28 27 26 26 26 25 23 21 21 21 21 16 17 15 15 15 18 18 17 17 17 17 16
32 32 32 32 31 31 31 31 31 31 30 29 28 28 28 27 26 26 26 26 23 22 21 20 20 17 17 16 15 14 14 16 17 18 19 19 18 15
31 31 31 31 32 31 31 31 30 29 29 28 27 27 27 26 26 26 25 24 23 21 19 18 18 18 18 15 14 14 14 14 15 15 15 15 17 17
Wind_Speed
17 18 15 14 13 14 14 12 12 11 16 11 11 16 17 14 17 17 19 23 26 24 24 23 21 18 21 21 19 16 15 15 14 14 13 12 11 10
13 17 16 13 14 13 13 14 12 14 12 18 19 11 18 16 18 19 21 21 25 25 24 23 22 19 22 24 22 20 18 17 16 15 14 13 11 11
17 17 17 14 15 14 14 14 14 12 15 8 14 13 12 18 16 17 17 18 18 25 25 23 21 20 23 26 25 23 22 21 19 18 16 14 12 12
16 16 16 14 16 13 15 17 16 16 16 19 13 15 18 15 14 16 16 14 17 19 25 24 23 23 24 26 25 24 22 21 21 18 17 15 13 14
16 18 16 16 16 13 14 13 13 13 15 14 14 10 13 4 6 7 12 14 14 17 21 25 25 25 25 25 24 23 21 22 19 19 18 17 14 15
14 16 15 17 17 15 15 18 16 15 15 17 13 10 8 6 7 9 13 12 17 11 15 19 20 23 24 25 23 22 21 20 20 20 19 17 16 14
14 14 15 16 16 16 14 14 16 17 17 16 16 11 11 8 17 12 19 12 12 12 13 17 16 18 20 24 20 22 21 21 21 21 19 18 16 15
14 14 13 16 19 20 22 21 17 19 19 19 21 15 20 19 14 19 16 12 13 14 18 19 17 19 18 18 20 20 21 22 22 20 19 18 16 17
7 12 13 12 15 14 18 23 25 25 26 23 25 24 21 22 21 18 20 18 18 5 21 17 13 21 13 14 20 22 22 22 20 20 18 18 18 17
11 11 11 12 13 16 16 17 17 18 19 20 24 21 15 18 25 26 27 17 3 5 14 13 12 18 12 13 21 22 22 21 21 21 19 18 17 17
10 10 12 14 15 18 18 18 18 18 15 23 26 25 24 23 21 13 15 16 13 10 14 9 7 8 9 10 12 22 21 21 21 20 18 17 18 17
10 11 15 17 16 18 19 17 18 17 14 14 14 18 20 18 25 26 21 23 15 9 11 16 10 8 6 5 12 14 14 19 20 18 16 15 15 11
11 11 11 15 18 18 17 15 16 11 14 15 15 13 11 12 17 20 17 22 18 14 11 16 8 9 3 4 3 5 11 10 11 11 16 14 15 16
8 8 9 12 13 14 14 15 16 13 10 10 10 11 11 11 8 8 7 6 4 6 16 13 7 11 9 5 4 4 5 5 7 8 7 8 16 19
7 9 12 13 12 13 15 16 13 12 11 11 12 11 6 8 12 13 14 16 14 9 10 5 8 9 9 6 6 5 7 6 7 7 7 11 12 7
8 9 9 9 9 11 11 12 12 12 12 11 9 6 8 10 12 10 10 12 10 10 11 10 10 9 7 6 6 9 7 6 4 8 10 9 8 9
8 6 6 3 3 3 2 6 6 6 8 7 9 11 10 10 8 11 12 10 8 10 9 9 11 11 9 7 4 5 6 5 7 7 6 11 10 10
3 5 3 1 2 3 5 4 5 6 6 8 8 9 10 11 11 11 10 10 15 13 11 7 7 5 3 4 2 4 4 7 5 6 5 8 13 9
4 4 3 2 3 3 5 5 6 6 8 9 10 11 12 12 14 14 13 13 13 10 9 9 7 5 5 5 1 9 7 4 2 3 7 9 14 16
3 4 4 4 4 4 5 4 5 7 7 8 9 10 11 13 13 13 12 12 13 8 8 7 8 8 6 6 5 2 1 2 3 6 8 7 12 21
4 3 3 4 5 4 5 5 5 6 7 8 8 9 10 12 11 11 11 12 12 8 11 7 5 6 9 6 3 1 1 3 4 7 9 12 12 8
2 1 1 3 4 5 5 6 6 7 7 8 9 9 9 10 12 13 12 12 10 10 7 9 8 8 3 2 2 1 4 6 8 14 12 14 11 9
3 2 1 2 3 4 5 6 7 8 9 9 10 10 11 11 11 10 11 11 12 11 10 7 5 3 3 2 2 2 5 8 6 13 13 13 17 21
Wind_Direction
187 197 198 201 194 192 195 191 192 206 219 228 215 217 217 215 219 209 214 216 217 221 223 223 227 223 205 204 211 221 225 231 231 230 233 237 246 259
184 189 191 193 193 195 202 208 210 213 229 213 220 214 208 213 218 210 217 218 217 220 226 228 227 214 199 194 199 210 219 224 227 234 239 244 248 256
198 191 197 195 200 206 204 205 219 211 230 233 224 211 208 212 221 218 224 217 218 220 221 225 225 212 198 190 195 204 213 222 225 225 232 241 249 256
198 191 192 203 211 206 202 204 212 217 229 236 225 224 218 213 221 213 216 219 220 221 222 223 216 207 200 196 197 203 211 220 225 228 235 240 246 258
198 198 196 205 210 214 215 222 219 221 220 227 228 214 214 191 192 212 210 218 217 225 219 219 213 208 203 201 202 205 209 219 221 227 232 238 244 253
199 204 202 199 209 210 222 226 225 220 222 225 220 203 201 204 185 209 229 221 223 214 220 219 216 217 207 205 207 208 213 215 220 226 230 236 242 249
208 205 203 206 210 208 212 220 222 227 231 232 226 204 192 178 205 211 227 228 222 211 213 217 209 207 212 209 210 209 210 214 218 222 228 235 240 246
211 214 214 218 225 230 228 226 219 229 236 234 238 221 209 210 197 205 206 203 243 204 207 225 207 212 211 206 206 206 209 216 219 223 229 236 240 245
252 219 220 221 225 227 236 241 244 242 239 238 237 237 219 204 200 201 202 212 228 205 198 223 191 218 203 207 201 199 205 212 222 226 232 236 239 247
259 247 238 234 227 232 241 246 244 244 245 248 251 258 250 228 203 208 209 213 176 168 183 209 194 219 212 215 209 204 202 208 220 226 232 234 245 248
271 260 245 243 236 232 237 243 247 247 241 242 247 250 247 232 212 196 185 187 210 205 195 188 194 193 194 209 210 212 208 215 223 226 228 237 248 243
270 268 256 246 242 237 237 238 244 247 244 250 258 261 257 241 205 199 192 204 206 197 195 195 167 157 203 204 202 207 210 220 221 221 236 241 237 242
254 254 248 246 246 244 241 240 240 241 248 250 253 248 234 214 198 200 194 201 199 222 190 179 166 165 152 132 179 179 180 189 193 224 234 231 240 251
291 274 268 259 259 260 257 248 242 239 233 239 235 224 212 203 192 182 161 129 134 202 169 174 163 171 155 145 155 150 156 160 181 210 222 249 260 260
304 299 293 281 274 270 261 248 221 195 203 209 215 206 192 146 120 103 96 96 77 81 137 133 146 141 143 147 150 160 158 212 200 212 230 238 244 244
309 310 297 290 267 260 250 232 186 190 197 206 196 166 135 146 146 129 127 123 104 81 69 99 117 134 132 148 153 163 176 178 201 217 228 243 249 242
306 300 297 299 276 238 184 162 165 173 168 165 175 173 164 153 146 133 139 137 140 143 119 88 82 86 82 133 150 157 175 207 211 212 233 266 260 246
253 265 293 9 211 211 190 164 150 159 157 154 160 166 161 156 146 131 136 138 140 139 139 139 138 112 79 49 120 160 214 235 232 229 232 263 280 265
222 258 252 227 212 207 211 198 189 182 163 169 170 168 157 153 154 144 143 144 148 150 145 142 150 132 153 192 121 199 207 199 189 234 237 244 279 285
205 240 239 226 219 201 199 197 176 166 172 169 164 162 161 159 157 156 160 151 146 133 137 142 154 159 159 182 163 156 55 197 257 289 291 276 264 282
205 224 237 229 215 186 188 178 174 177 168 167 167 165 162 155 149 144 143 143 139 134 147 153 176 139 117 102 115 105 355 289 271 273 286 293 292 274
184 182 241 218 187 170 178 169 167 169 161 163 156 149 145 145 144 144 145 144 143 143 139 127 119 122 107 148 182 247 291 299 283 287 280 270 268 285
91 94 140 135 147 166 168 165 163 160 160 153 150 145 142 139 137 136 135 134 139 140 144 141 143 115 152 181 230 270 290 305 300 315 302 289 281 278